Location: Mexico
(19.4000°N, 99.1500°W)
Time: 10:14:19
(UTC-06:00)

ISS - Pass Details

Date: 16 August 2017
Orbit: 401 x 408 km, 51.6° (Epoch: 19 August)

Event Time Altitude Azimuth Distance (km) Brightness Sun altitude
Rises 19:56:43 0° 324° (NW) 2,302 1.0 -12.8°
Reaches altitude 10° 19:58:47 10° 326° (NW) 1,443 -0.2 -13.3°
Maximum altitude 20:02:01 71° 51° (NE) 424 -3.9 -14.0°
Enters shadow 20:03:31 28° 129° (SE) 773 -3.0 -14.3°
